{"data":{"norad_id":56811,"intl_designator":"2023-078AW","name":"STARLINK-6063","alt_names":[],"object_type":"PAYLOAD","status":"ACTIVE","operator":null,"country":"US","launch_date":"2023-05-31","launch_site_code":"AFWTR","launch_vehicle":null,"mission":null,"orbit_class":"UNKNOWN","rcs_meters":null,"size_class":null,"mass_kg":null,"dimensions":null,"purposes":["comms"],"wikipedia_slug":null,"has_3d_model":false,"image_url":null,"decayed_at":null,"tle_current":{"epoch":"2026-05-26T00:49:20.699040Z","epoch_age_seconds":10267254,"freshness":"OLD","line1":"1 56811U 23078AW  26146.03426735  .07085661  44052-5  24829-3 0  9991","line2":"2 56811  69.9827  75.6033 0014180 251.3950 108.5743 16.43000737166087","mean_motion":16.43000737,"eccentricity":0.001418,"inclination_deg":69.9827,"raan_deg":75.6033,"arg_perigee_deg":251.395,"mean_anomaly_deg":108.5743,"bstar":0.00024829,"rev_number":16608,"period_min":87.644513332924,"perigee_km":148.56427871212,"apogee_km":167.10028759915,"semimajor_km":6535.9692831556,"source":"CELESTRAK","updated_at":"2026-05-26T09:01:10.868754Z"}}}